Location: ???????
(55.3754°N, 39.3545°E)
Time: 07:53:58
(UTC+00:00)

CZ-4C R/B - Pass Details

Date: 14 April 2026
Orbit: 475 x 1502 km, 63.4° (Epoch: 14 May)

Event Time Altitude Azimuth Distance (km) Brightness Sun altitude
Exits shadow 23:47:04 19° 160° (SSE) 1,492 3.2 -18.3°
Maximum altitude 23:49:12 28° 118° (ESE) 1,276 3.2 -18.1°
Drops below altitude 10° 23:53:43 10° 61° (ENE) 2,395 5.6 -17.7°
Sets 23:56:48 0° 51° (NE) 3,526 7.0 -17.4°
